This is the latest recevied weather packets stored in our database for station/object W4DHW-4. If no packets are shown the sender has not sent any weather packets the latest 10 day(s).
| Time | Temp. | Humidity | Pressure | Rain* | Wind** | Luminosity | Snow |
|---|---|---|---|---|---|---|---|
| 1777767233 | 11.11° C | 48% | 1014.1 hPa | 0 mm | - | 0 W/m² | - |
| 1777766931 | 11.67° C | 46% | 1013.9 hPa | 0 mm | - | 2 W/m² | - |
| 1777766628 | 11.67° C | 47% | 1014.2 hPa | 0 mm | - | 4 W/m² | - |
| 1777766324 | 11.67° C | 45% | 1014 hPa | 0 mm | - | 7 W/m² | - |
| 1777766022 | 12.22° C | 44% | 1014.1 hPa | 0 mm | - | 12 W/m² | - |
| 1777765718 | 12.22° C | 43% | 1013.9 hPa | 0 mm | - | 15 W/m² | - |
| 1777765415 | 12.22° C | 42% | 1014 hPa | 0 mm | - | 18 W/m² | - |
| 1777765112 | 12.78° C | 41% | 1013.8 hPa | 0 mm | - | 23 W/m² | - |
| 1777764808 | 12.78° C | 40% | 1013.6 hPa | 0 mm | - | 27 W/m² | - |
| 1777764505 | 12.78° C | 41% | 1013.8 hPa | 0 mm | - | 31 W/m² | - |
| 1777764202 | 13.33° C | 40% | 1013.5 hPa | 0 mm | - | 36 W/m² | - |
| 1777763898 | 13.89° C | 39% | 1013.3 hPa | 0 mm | - | 41 W/m² | - |
| 1777763596 | 13.89° C | 39% | 1013.3 hPa | 0 mm | - | 52 W/m² | - |
| 1777763294 | 13.89° C | 39% | 1013.5 hPa | 0 mm | - | 64 W/m² | - |
| 1777762992 | 14.44° C | 39% | 1013.3 hPa | 0 mm | - | 78 W/m² | - |
| 1777762688 | 13.89° C | 38% | 1013.1 hPa | 0 mm | - | 121 W/m² | - |
| 1777762385 | 13.89° C | 38% | 1013.2 hPa | 0 mm | - | 134 W/m² | - |
| 1777762082 | 13.89° C | 39% | 1013.1 hPa | 0 mm | - | 151 W/m² | - |
| 1777761778 | 13.89° C | 39% | 1013.3 hPa | 0 mm | - | 150 W/m² | - |
| 1777761476 | 13.89° C | 38% | 1013 hPa | 0 mm | - | 81 W/m² | - |
| 1777761174 | 15° C | 37% | 1012.8 hPa | 0 mm | - | 94 W/m² | - |
| 1777760871 | 15° C | 37% | 1013 hPa | 0 mm | - | 226 W/m² | - |
| 1777760568 | 14.44° C | 37% | 1012.8 hPa | 0 mm | - | 135 W/m² | - |
| 1777760263 | 14.44° C | 38% | 1012.8 hPa | 0 mm | - | 116 W/m² | - |
| 1777759960 | 15° C | 36% | 1012.6 hPa | 0 mm | - | 265 W/m² | - |
* Rain latest hour (hover to see other rain measurements)
** Current wind speed in m/s (hover to see current wind gust speed)